This demonstration page uses our WeatherBlox Daily Observations layout. Learn more.

Left ArrowRight Arrow

44.8408, -93.29828

Hourly Observations for May 6, 2016

Temp ( °F °C ) Dew Point ( °F °C ) Humidity (%) Winds ( mph kmh ) Pressure ( in mb ) Visibility ( mi km ) Precip ( " mm )
12:53 am 00:53 Clear 66 18.9 41 5 40 40 WSW 8 13 29.86 1011 10 16 0.00 0.00
1:53 am 01:53 Clear 65 18.3 41 5 42 42 WSW 8 13 29.85 1011 10 16 0.00 0.00
2:53 am 02:53 Clear 65 18.3 41 5 42 42 WSW 9 15 29.85 1011 10 16 0.00 0.00
3:53 am 03:53 Clear 63 17.2 41 5 45 45 WSW 9 15 29.86 1011 10 16 0.00 0.00
4:53 am 04:53 Mostly Clear 62 16.7 41 5 46 46 WSW 6 9 29.86 1011 10 16 0.00 0.00
5:53 am 05:53 Mostly Clear 61 16.1 41 5 48 48 WSW 9 15 29.87 1011 10 16 0.00 0.00
8:53 am 08:53 Mostly Sunny 69 20.6 44 6.7 41 41 WSW 12 19 29.86 1011 10 16 0.00 0.00
9:53 am 09:53 Sunny 74 23.3 46 7.8 37 37 WSW 12 19 29.84 1011 10 16 0.00 0.00
10:53 am 10:53 Sunny 79 26.1 49 9.4 35 35 WSW 10 17 29.82 1010 10 16 0.00 0.00
11:53 am 11:53 Mostly Sunny 82 27.8 49 9.4 32 32 WSW 13 20 29.80 1009 10 16 0.00 0.00
12:53 pm 12:53 Mostly Sunny 85 29.4 48 8.9 28 28 SW 15 24 29.77 1008 10 16 0.00 0.00
1:53 pm 13:53 Mostly Sunny 88 31.1 47 8.3 24 24 SSW 16 26 29.74 1007 10 16 0.00 0.00
2:53 pm 14:53 Partly Cloudy 90 32.2 46 7.8 22 22 SW 20 31 29.70 1006 10 16 0.00 0.00
3:53 pm 15:53 Partly Cloudy 91 32.8 44 6.7 20 20 SW 17 28 29.67 1005 10 16 0.00 0.00
4:53 pm 16:53 Partly Cloudy 91 32.8 47 8.3 22 22 SW 15 24 29.63 1004 10 16 0.00 0.00
5:53 pm 17:53 Partly Cloudy 90 32.2 50 10 25 25 W 13 20 29.61 1003 10 16 0.00 0.00
6:53 pm 18:53 Mostly Cloudy 86 30 52 11.1 31 31 NW 16 26 29.62 1003 10 16 0.00 0.00
7:53 pm 19:53 Mostly Cloudy 82 27.8 52 11.1 35 35 WNW 10 17 29.64 1004 10 16 0.00 0.00
8:53 pm 20:53 Mostly Cloudy 78 25.6 53 11.7 42 42 NW 8 13 29.65 1004 10 16 0.00 0.00
9:53 pm 21:53 Mostly Cloudy 78 25.6 49 9.4 36 36 N 22 35 29.70 1006 10 16 0.00 0.00
10:53 pm 22:53 Mostly Cloudy 74 23.3 47 8.3 38 38 N 18 30 29.74 1007 9 14 0.00 0.00
11:53 pm 23:53 Mostly Cloudy 71 21.7 45 7.2 39 39 N 20 31 29.79 1009 10 16 0.00 0.00

Powered by AerisWeather